{"data":{"norad_id":68836,"epoch":"2026-09-20T03:05:37.329792Z","epoch_age_seconds":87332,"freshness":"FRESH","line1":"1 68836U 26067CX  26263.12890428  .00005564  00000+0  26467-3 0  9992","line2":"2 68836  97.4628 220.3712 0011859  49.9588 310.2685 15.19523576 26156","mean_motion":15.19523576,"eccentricity":0.0011859,"inclination_deg":97.4628,"raan_deg":220.3712,"arg_perigee_deg":49.9588,"mean_anomaly_deg":310.2685,"bstar":0.00026467,"rev_number":2615,"period_min":94.766545432001,"perigee_km":499.11403566936,"apogee_km":515.44486640794,"semimajor_km":6885.4164510387,"source":"CELESTRAK","updated_at":"2026-09-20T09:00:24.497417Z"}}